Location: St. Louis
(38.6270°N, 90.1994°W)
Time: 21:17:01
(UTC-06:00)

Vanguard 2 - Pass Details

Date: 02 December 2021
Orbit: 553 x 2936 km, 32.9° (Epoch: 21 January)

Event Time Altitude Azimuth Distance (km) Brightness Sun altitude
Rises 19:51:19 0° 270° (W) 4,644 12.5 -36.8°
Reaches altitude 10° 19:54:46 10° 257° (WSW) 4,008 11.9 -37.5°
Maximum altitude 20:03:14 25° 208° (SSW) 3,667 11.1 -39.1°
Drops below altitude 10° 20:14:34 10° 162° (SSE) 5,450 11.6 -41.3°
Enters shadow 20:16:13 - 159° (SSE) 5,788 11.8 -41.7°
Sets 20:20:27 0° 151° (SSE) 6,676 - -42.5°
